Time,TemperatureF,DewpointF,PressureIn,WindDirection,WindDirectionDegrees,WindSpeedMPH,WindSpeedGustMPH,Humidity,HourlyPrecipIn,Conditions,Clouds,dailyrainin,SoftwareType,DateUTC
2013-03-26 00:27:00,33.8,24.4,29.65,SSW,202,2.0,-999.0,68,-99.99,,,0.00,Acu-Link.com,2013-03-26 04:27:00,
2013-03-26 00:42:00,33.8,24.0,29.64,West,270,2.7,-999.0,67,-99.99,,,0.00,Acu-Link.com,2013-03-26 04:42:00,
2013-03-26 00:57:00,33.8,24.0,29.64,South,180,1.6,-999.0,67,-99.99,,,0.00,Acu-Link.com,2013-03-26 04:57:00,
2013-03-26 01:13:00,33.8,23.7,29.65,WSW,247,1.1,-999.0,66,-99.99,,,0.00,Acu-Link.com,2013-03-26 05:13:00,
2013-03-26 01:28:00,33.8,23.7,29.65,WSW,247,2.7,-999.0,66,-99.99,,,0.00,Acu-Link.com,2013-03-26 05:28:00,
2013-03-26 01:43:00,33.8,24.0,29.65,West,270,1.6,-999.0,67,-99.99,,,0.00,Acu-Link.com,2013-03-26 05:43:00,
2013-03-26 01:59:00,33.8,24.4,29.65,SW,225,2.7,-999.0,68,-99.99,,,0.00,Acu-Link.com,2013-03-26 05:59:00,
2013-03-26 02:14:00,33.8,24.7,29.66,West,270,0.0,-999.0,69,-99.99,,,0.00,Acu-Link.com,2013-03-26 06:14:00,
2013-03-26 02:29:00,33.8,25.1,29.66,West,270,1.1,-999.0,70,-99.99,,,0.00,Acu-Link.com,2013-03-26 06:29:00,
2013-03-26 02:45:00,33.8,24.7,29.66,South,180,1.1,-999.0,69,-99.99,,,0.00,Acu-Link.com,2013-03-26 06:45:00,
2013-03-26 03:00:00,33.8,24.4,29.66,SW,225,2.0,-999.0,68,-99.99,,,0.00,Acu-Link.com,2013-03-26 07:00:00,
2013-03-26 03:15:00,33.8,24.0,29.67,West,270,3.1,-999.0,67,-99.99,,,0.00,Acu-Link.com,2013-03-26 07:15:00,
2013-03-26 03:30:00,35.6,25.4,29.67,NW,315,1.1,-999.0,66,-99.99,,,0.00,Acu-Link.com,2013-03-26 07:30:00,
2013-03-26 03:45:00,35.6,25.4,29.66,North,0,3.6,-999.0,66,-99.99,,,0.00,Acu-Link.com,2013-03-26 07:45:00,
2013-03-26 04:32:00,35.6,25.7,29.66,West,270,1.1,-999.0,67,-99.99,,,0.00,Acu-Link.com,2013-03-26 08:32:00,
2013-03-26 04:47:00,33.8,24.0,29.66,NNE,22,1.6,-999.0,67,-99.99,,,0.00,Acu-Link.com,2013-03-26 08:47:00,
2013-03-26 05:02:00,33.8,24.4,29.66,South,180,0.0,-999.0,68,-99.99,,,0.00,Acu-Link.com,2013-03-26 09:02:00,
2013-03-26 05:17:00,33.8,24.7,29.66,West,270,0.0,-999.0,69,-99.99,,,0.00,Acu-Link.com,2013-03-26 09:17:00,
2013-03-26 05:32:00,33.8,25.1,29.66,West,270,0.0,-999.0,70,-99.99,,,0.00,Acu-Link.com,2013-03-26 09:32:00,
2013-03-26 05:48:00,32.0,23.7,29.67,West,270,0.0,-999.0,71,-99.99,,,0.00,Acu-Link.com,2013-03-26 09:48:00,
2013-03-26 06:03:00,32.0,24.0,29.67,West,270,1.1,-999.0,72,-99.99,,,0.00,Acu-Link.com,2013-03-26 10:03:00,
2013-03-26 06:18:00,32.0,24.7,29.67,WNW,292,1.1,-999.0,74,-99.99,,,0.00,Acu-Link.com,2013-03-26 10:18:00,
2013-03-26 06:33:00,32.0,25.6,29.67,NNE,22,1.6,-999.0,77,-99.99,,,0.00,Acu-Link.com,2013-03-26 10:33:00,
2013-03-26 06:49:00,30.2,24.8,29.67,NNE,22,1.6,-999.0,80,-99.99,,,0.00,Acu-Link.com,2013-03-26 10:49:00,
2013-03-26 07:04:00,30.2,25.1,29.68,East,90,0.0,-999.0,81,-99.99,,,0.00,Acu-Link.com,2013-03-26 11:04:00,
2013-03-26 07:19:00,30.2,25.7,29.68,NE,45,0.0,-999.0,83,-99.99,,,0.00,Acu-Link.com,2013-03-26 11:19:00,
2013-03-26 07:34:00,30.2,26.0,29.69,NE,45,1.1,-999.0,84,-99.99,,,0.00,Acu-Link.com,2013-03-26 11:34:00,
2013-03-26 07:50:00,30.2,26.0,29.69,NNW,337,1.1,-999.0,84,-99.99,,,0.00,Acu-Link.com,2013-03-26 11:50:00,
2013-03-26 08:05:00,30.2,26.0,29.70,NNE,22,1.6,-999.0,84,-99.99,,,0.00,Acu-Link.com,2013-03-26 12:05:00,
2013-03-26 08:20:00,32.0,26.8,29.70,ESE,112,1.6,-999.0,81,-99.99,,,0.00,Acu-Link.com,2013-03-26 12:20:00,
2013-03-26 08:36:00,35.6,26.8,29.71,NW,315,2.7,-999.0,70,-99.99,,,0.00,Acu-Link.com,2013-03-26 12:36:00,
2013-03-26 09:06:00,42.8,27.3,29.72,West,270,2.0,-999.0,54,-99.99,,,0.00,Acu-Link.com,2013-03-26 13:06:00,
2013-03-26 09:22:00,42.8,27.3,29.73,SSW,202,3.1,-999.0,54,-99.99,,,0.00,Acu-Link.com,2013-03-26 13:22:00,
2013-03-26 09:37:00,41.0,26.9,29.74,WSW,247,1.6,-999.0,57,-99.99,,,0.00,Acu-Link.com,2013-03-26 13:37:00,
2013-03-26 09:52:00,41.0,26.5,29.74,East,90,3.1,-999.0,56,-99.99,,,0.00,Acu-Link.com,2013-03-26 13:52:00,
2013-03-26 10:07:00,44.6,27.6,29.74,NNE,22,5.1,-999.0,51,-99.99,,,0.00,Acu-Link.com,2013-03-26 14:07:00,
2013-03-26 10:37:00,46.4,27.3,29.74,WNW,292,3.1,-999.0,47,-99.99,,,0.00,Acu-Link.com,2013-03-26 14:37:00,
2013-03-26 10:53:00,48.2,29.4,29.75,SSW,202,3.1,-999.0,48,-99.99,,,0.00,Acu-Link.com,2013-03-26 14:53:00,
2013-03-26 11:08:00,46.4,26.2,29.75,SE,135,3.6,-999.0,45,-99.99,,,0.00,Acu-Link.com,2013-03-26 15:08:00,
2013-03-26 11:23:00,46.4,25.1,29.76,WNW,292,2.0,-999.0,43,-99.99,,,0.00,Acu-Link.com,2013-03-26 15:23:00,
2013-03-26 11:38:00,46.4,25.7,29.76,SSW,202,2.0,-999.0,44,-99.99,,,0.00,Acu-Link.com,2013-03-26 15:38:00,
2013-03-26 11:53:00,46.4,26.2,29.76,WSW,247,2.0,-999.0,45,-99.99,,,0.00,Acu-Link.com,2013-03-26 15:53:00,
2013-03-26 12:09:00,48.2,27.3,29.76,NW,315,3.6,-999.0,44,-99.99,,,0.00,Acu-Link.com,2013-03-26 16:09:00,
2013-03-26 12:24:00,46.4,26.8,29.77,SW,225,3.6,-999.0,46,-99.99,,,0.00,Acu-Link.com,2013-03-26 16:24:00,
2013-03-26 12:39:00,46.4,25.7,29.77,ESE,112,1.6,-999.0,44,-99.99,,,0.00,Acu-Link.com,2013-03-26 16:39:00,
2013-03-26 12:55:00,46.4,26.8,29.77,WSW,247,1.6,-999.0,46,-99.99,,,0.00,Acu-Link.com,2013-03-26 16:55:00,
2013-03-26 13:10:00,46.4,25.7,29.77,West,270,2.0,-999.0,44,-99.99,,,0.00,Acu-Link.com,2013-03-26 17:10:00,
2013-03-26 13:25:00,46.4,27.3,29.77,SSE,157,2.0,-999.0,47,-99.99,,,0.00,Acu-Link.com,2013-03-26 17:25:00,
2013-03-26 13:40:00,46.4,26.8,29.78,South,180,3.1,-999.0,46,-99.99,,,0.00,Acu-Link.com,2013-03-26 17:40:00,
2013-03-26 13:55:00,46.4,26.2,29.77,WSW,247,1.6,-999.0,45,-99.99,,,0.00,Acu-Link.com,2013-03-26 17:55:00,
2013-03-26 14:10:00,50.0,27.8,29.77,South,180,3.6,-999.0,42,-99.99,,,0.00,Acu-Link.com,2013-03-26 18:10:00,
2013-03-26 14:25:00,51.8,29.4,29.77,South,180,2.0,-999.0,42,-99.99,,,0.00,Acu-Link.com,2013-03-26 18:25:00,
2013-03-26 14:41:00,51.8,27.6,29.77,West,270,1.6,-999.0,39,-99.99,,,0.00,Acu-Link.com,2013-03-26 18:41:00,
2013-03-26 15:26:00,48.2,27.9,29.77,SW,225,2.7,-999.0,45,-99.99,,,0.00,Acu-Link.com,2013-03-26 19:26:00,
2013-03-26 15:42:00,46.4,25.7,29.77,ESE,112,3.1,-999.0,44,-99.99,,,0.00,Acu-Link.com,2013-03-26 19:42:00,
2013-03-26 15:57:00,46.4,25.7,29.77,SSW,202,3.1,-999.0,44,-99.99,,,0.00,Acu-Link.com,2013-03-26 19:57:00,
2013-03-26 16:12:00,48.2,26.2,29.78,SW,225,3.1,-999.0,42,-99.99,,,0.00,Acu-Link.com,2013-03-26 20:12:00,
2013-03-26 16:27:00,50.0,27.8,29.78,SW,225,3.1,-999.0,42,-99.99,,,0.00,Acu-Link.com,2013-03-26 20:27:00,
2013-03-26 16:42:00,50.0,27.2,29.78,SSE,157,3.6,-999.0,41,-99.99,,,0.00,Acu-Link.com,2013-03-26 20:42:00,
2013-03-26 16:57:00,51.8,27.6,29.78,West,270,2.7,-999.0,39,-99.99,,,0.00,Acu-Link.com,2013-03-26 20:57:00,
2013-03-26 17:13:00,48.2,26.2,29.80,WSW,247,2.7,-999.0,42,-99.99,,,0.00,Acu-Link.com,2013-03-26 21:13:00,
2013-03-26 17:28:00,48.2,27.9,29.80,SE,135,2.7,-999.0,45,-99.99,,,0.00,Acu-Link.com,2013-03-26 21:28:00,
2013-03-26 17:43:00,48.2,27.3,29.80,SW,225,2.0,-999.0,44,-99.99,,,0.00,Acu-Link.com,2013-03-26 21:43:00,
2013-03-26 17:59:00,48.2,27.3,29.80,South,180,2.7,-999.0,44,-99.99,,,0.00,Acu-Link.com,2013-03-26 21:59:00,
2013-03-26 18:14:00,46.4,26.8,29.81,WNW,292,5.6,-999.0,46,-99.99,,,0.00,Acu-Link.com,2013-03-26 22:14:00,
2013-03-26 18:29:00,44.6,25.1,29.82,South,180,4.0,-999.0,46,-99.99,,,0.00,Acu-Link.com,2013-03-26 22:29:00,
2013-03-26 18:44:00,44.6,26.1,29.82,West,270,1.6,-999.0,48,-99.99,,,0.00,Acu-Link.com,2013-03-26 22:44:00,
2013-03-26 18:59:00,44.6,25.6,29.83,ENE,67,2.0,-999.0,47,-99.99,,,0.00,Acu-Link.com,2013-03-26 22:59:00,
2013-03-26 19:14:00,44.6,26.6,29.84,SSW,202,4.0,-999.0,49,-99.99,,,0.00,Acu-Link.com,2013-03-26 23:14:00,
2013-03-26 19:30:00,42.8,25.0,29.84,SSE,157,2.0,-999.0,49,-99.99,,,0.00,Acu-Link.com,2013-03-26 23:30:00,
2013-03-26 19:45:00,42.8,25.9,29.86,SW,225,2.7,-999.0,51,-99.99,,,0.00,Acu-Link.com,2013-03-26 23:45:00,
2013-03-26 20:00:00,42.8,26.9,29.86,SW,225,3.6,-999.0,53,-99.99,,,0.00,Acu-Link.com,2013-03-27 00:00:00,
2013-03-26 20:15:00,42.8,27.8,29.87,NNW,337,2.7,-999.0,55,-99.99,,,0.00,Acu-Link.com,2013-03-27 00:15:00,
2013-03-26 21:17:00,41.0,26.5,29.90,West,270,1.6,-999.0,56,-99.99,,,0.00,Acu-Link.com,2013-03-27 01:17:00,
2013-03-26 21:47:00,37.4,24.0,29.92,WSW,247,1.1,-999.0,58,-99.99,,,0.00,Acu-Link.com,2013-03-27 01:47:00,
2013-03-26 22:02:00,37.4,24.8,29.92,WSW,247,0.0,-999.0,60,-99.99,,,0.00,Acu-Link.com,2013-03-27 02:02:00,
2013-03-26 22:18:00,37.4,25.2,29.92,West,270,5.6,-999.0,61,-99.99,,,0.00,Acu-Link.com,2013-03-27 02:18:00,
2013-03-26 22:33:00,37.4,24.8,29.93,West,270,1.6,-999.0,60,-99.99,,,0.00,Acu-Link.com,2013-03-27 02:33:00,
2013-03-26 22:48:00,35.6,22.7,29.93,SW,225,1.6,-999.0,59,-99.99,,,0.00,Acu-Link.com,2013-03-27 02:48:00,
2013-03-26 23:04:00,35.6,24.3,29.93,SSW,202,2.7,-999.0,63,-99.99,,,0.00,Acu-Link.com,2013-03-27 03:04:00,
2013-03-26 23:19:00,35.6,24.3,29.94,West,270,1.6,-999.0,63,-99.99,,,0.00,Acu-Link.com,2013-03-27 03:19:00,
2013-03-26 23:34:00,35.6,25.0,29.94,NW,315,1.6,-999.0,65,-99.99,,,0.00,Acu-Link.com,2013-03-27 03:34:00,
2013-03-26 23:50:00,33.8,22.9,29.94,SSW,202,1.6,-999.0,64,-99.99,,,0.00,Acu-Link.com,2013-03-27 03:50:00,